Location: Peebles
(55.6412°N, 3.1714°W)
Time: 08:59:10
(UTC+01:00)

Cosmos 2218 Rocket - Pass Details

Date: 26 September 2021
Orbit: 957 x 1005 km, 82.9° (Epoch: 20 October)

Event Time Altitude Azimuth Distance (km) Brightness Sun altitude
Rises 21:36:55 0° 194° (SSW) 3,631 6.8 -21.9°
Reaches altitude 10° 21:39:23 10° 195° (SSW) 2,692 6.1 -22.1°
Maximum altitude 21:45:34 79° 283° (WNW) 993 4.0 -22.9°
Drops below altitude 10° 21:51:51 10° 10° (N) 2,739 6.6 -23.6°
Sets 21:54:24 0° 12° (NNE) 3,697 7.3 -23.9°
